Regional Weather Roundup
Issued by NWS Bismarck, ND

Home | Current Version | Previous Version | Text Only | Print | Product List | Glossary On
Versions: 1 2 3 4 5 6 7 8 9 10 11 12 13 14 15 16 17 18 19 20 21 22 23 24 25 26 27 28 29 30 31 32 33 34 35 36 37 38 39 40 41 42 43 44 45 46 47 48 49 50
000
ASUS43 KBIS 140059
RWRBIS

NWR BROADCAST TEXT
NATIONAL WEATHER SERVICE BISMARCK ND
800 PM CDT SUN JUL 13 2014

NOTE: "FAIR" INDICATES FEW OR NO CLOUDS BELOW 12,000 FEET WITH NO
SIGNIFICANT WEATHER AND/OR OBSTRUCTIONS TO VISIBILITY.


CITY           SKY/WX    TMP DP  RH WIND       PRES   REMARKS
WILLISTON      SUNNY     73  37  27 N20       30.12R
MINOT          MOSUNNY   68  45  43 NW21G28   30.05R
MINOT AFB      NOT AVBL
BISMARCK       MOSUNNY   72  41  32 N16G23    30.04S
DICKINSON      NOT AVBL
GARRISON         N/A     68  46  45 N15G26    30.06R
HETTINGER ARPT SUNNY     72  41  32 N13       30.12R
JAMESTOWN      NOT AVBL
MANDAN         FAIR      68  41  37 NW16G30   30.06R
$$

CITY           SKY/WX    TMP DP  RH WIND       PRES   REMARKS
GRAND FORKS    CLOUDY    64  47  53 N10       29.93R
GRAND FORKS AF NOT AVBL
DEVILS LAKE    CLOUDY    63  45  51 N21G26    29.98R
FARGO          CLOUDY    68  47  46 NW16      29.93R
GWINNER        CLEAR     72  46  40 NW14G23   29.97R
$$

CITY           SKY/WX    TMP DP  RH WIND       PRES   REMARKS
ABERDEEN       SUNNY     72  42  34 N13       29.99R
MOBRIDGE       SUNNY     73  46  38 N9        30.02R
BUFFALO          N/A     75  47  36 N16G26    30.07R
RAPID CITY     SUNNY     78  54  43 NE14      30.12R
GLASGOW        SUNNY     79  44  28 N16G25    30.14
SIDNEY         SUNNY     73  36  25 N20       30.14S
WOLF POINT     SUNNY     79  37  22 N16       30.14
GLENDIVE       SUNNY     77  39  25 N17       30.14S
MILES CITY     SUNNY     82  49  31 N16       30.13
BAKER          SUNNY     76  45  33 N18G25    30.15
$$

CITY           SKY/WX    TMP DP  RH WIND       PRES   REMARKS
BILLINGS       MOSUNNY   86  44  23 E14       30.17S
GREAT FALLS    SUNNY     86  44  23 NE13      30.19
$$



USA.gov is the U.S. government's official web portal to all federal, state and local government web resources and services.